LOT7KG EPWA-EPRZ

Flight info

Callsign LOT7KG
Flight time N/A
Altitude 24000
Route XIMBA N195 VELAX
Aircraft E75L/M-SDE3GILORVW/S

Departure

Time 2026-04-30 22:49
Airport Warsaw Chopin Airport (EPWA)

Arrival

Time N/A
Airport Rzeszów-Jasionka Airport (EPRZ)
Time Latitude Longitude Altitude Speed Heading
2026-04-30 22:31 52.17345 20.97071 348 ft 0 kts 242°
2026-04-30 22:33 52.17345 20.97074 348 ft 2 kts 242°
2026-04-30 22:33 52.17367 20.97141 357 ft 4 kts 249°
2026-04-30 22:34 52.17349 20.97187 358 ft 3 kts 331°
2026-04-30 22:39 52.17357 20.97179 376 ft 3 kts 331°
2026-04-30 22:39 52.17458 20.97089 351 ft 0 kts 332°
2026-04-30 22:40 52.17535 20.97023 352 ft 8 kts 332°
2026-04-30 22:41 52.17578 20.96778 348 ft 12 kts 239°
2026-04-30 22:41 52.17492 20.96561 352 ft 9 kts 225°
2026-04-30 22:42 52.17269 20.96501 351 ft 13 kts 152°
2026-04-30 22:43 52.17083 20.96660 349 ft 17 kts 152°
2026-04-30 22:43 52.16860 20.96863 354 ft 20 kts 150°
2026-04-30 22:44 52.16697 20.96999 350 ft 10 kts 151°
2026-04-30 22:45 52.16565 20.97392 350 ft 14 kts 114°
2026-04-30 22:45 52.16500 20.97637 352 ft 9 kts 114°
2026-04-30 22:46 52.16437 20.97809 350 ft 5 kts 165°
2026-04-30 22:47 52.16308 20.97660 346 ft 0 kts 294°
2026-04-30 22:47 52.16365 20.97459 348 ft 52 kts 295°
2026-04-30 22:48 52.17026 20.95115 428 ft 161 kts 295°
2026-04-30 22:49 52.18422 20.90615 2416 ft 167 kts 289°
2026-04-30 22:49 52.17314 20.83090 3616 ft 239 kts 253°
2026-04-30 22:50 52.15378 20.72901 5910 ft 271 kts 236°
2026-04-30 22:51 52.12859 20.68252 7126 ft 278 kts 227°
2026-04-30 22:51 52.10025 20.63902 8160 ft 286 kts 220°
2026-04-30 22:52 52.08454 20.61871 8681 ft 290 kts 219°
2026-04-30 22:52 52.05224 20.57786 9736 ft 298 kts 219°
2026-04-30 22:53 52.01888 20.53589 10574 ft 313 kts 219°
2026-04-30 22:53 51.98286 20.49056 10907 ft 339 kts 219°
2026-04-30 22:53 51.96236 20.47158 11283 ft 343 kts 198°
2026-04-30 22:54 51.91619 20.47898 12153 ft 341 kts 147°
2026-04-30 22:55 51.86988 20.56266 13567 ft 342 kts 123°
2026-04-30 22:55 51.83997 20.62356 14570 ft 350 kts 129°
2026-04-30 22:56 51.80639 20.68081 15586 ft 355 kts 130°
2026-04-30 22:56 51.75456 20.77182 16774 ft 371 kts 125°
2026-04-30 22:57 51.72186 20.83697 17785 ft 376 kts 124°
2026-04-30 22:57 51.70274 20.87532 18405 ft 380 kts 124°
2026-04-30 22:58 51.66937 20.94205 19390 ft 384 kts 124°
2026-04-30 22:59 51.61851 21.04348 20851 ft 391 kts 124°
2026-04-30 22:59 51.56682 21.14609 22291 ft 398 kts 123°